Temp
21 21 21 21 22 22 21 22 22 22 22 22 22 22 22 22 21 21 21 20 20 20 19 20 20 20 20 20 20 20 20 20 20 19 19 19 19 19 19 19 19 18
22 21 21 21 21 22 21 21 21 22 22 22 22 22 22 21 21 21 21 20 20 20 20 20 20 20 20 20 20 20 20 20 20 19 19 20 20 20 20 20 19 19
22 22 21 21 21 22 22 22 21 21 22 22 22 22 22 21 21 21 21 21 20 20 20 20 20 20 20 20 20 20 20 21 21 20 20 20 20 20 20 20 19 19
22 22 22 22 22 22 22 22 22 21 21 21 21 21 21 21 21 21 21 21 21 21 20 20 20 20 20 20 20 20 20 21 21 20 20 20 20 20 20 20 19 19
23 22 22 22 22 22 22 22 22 22 21 21 21 21 21 21 21 21 21 21 21 21 20 20 20 20 20 20 20 20 20 21 21 20 20 20 20 20 20 19 20 19
22 22 22 22 22 22 22 23 23 22 22 21 21 21 21 21 21 21 21 21 21 21 20 20 20 20 20 20 20 20 21 21 21 21 20 20 20 20 20 20 20 19
22 22 22 22 22 22 22 23 23 23 22 22 21 21 21 21 21 21 21 21 21 21 21 20 20 20 21 21 20 21 21 21 21 21 21 20 20 20 20 20 20 20
23 22 22 22 22 22 22 23 23 23 23 22 21 21 21 21 21 21 21 21 21 21 21 20 21 21 21 21 21 21 21 21 21 21 21 21 20 20 20 20 20 20
23 23 22 22 22 22 22 23 23 23 23 22 22 21 21 21 21 21 21 21 21 21 21 20 20 21 21 21 21 21 21 21 21 21 21 21 20 20 20 20 20 20
23 23 22 22 22 22 22 23 23 23 23 23 22 22 21 21 21 21 21 21 21 21 21 20 20 21 21 21 21 21 21 21 21 21 21 21 21 20 20 20 20 20
23 23 23 23 22 22 22 22 23 23 23 23 22 22 22 21 21 21 21 21 21 21 21 21 21 20 21 21 21 20 20 21 21 21 21 21 21 21 20 20 20 20
24 23 23 23 23 22 22 22 22 23 23 23 23 22 22 21 21 21 21 21 21 21 21 21 21 21 21 21 21 20 20 20 20 20 21 21 21 21 21 20 20 20
24 24 24 23 23 23 22 22 22 23 23 23 23 23 22 22 21 21 21 21 21 21 21 21 21 20 21 21 21 21 20 20 20 20 20 21 21 21 21 20 20 20
24 24 24 24 24 23 22 22 22 22 23 23 23 23 22 22 22 21 21 21 21 21 21 21 20 20 20 20 20 20 20 20 20 20 20 20 20 21 21 20 20 20
24 24 24 24 24 23 23 22 22 22 22 23 23 23 23 22 22 21 21 21 21 21 21 20 20 20 21 20 20 20 20 20 20 20 20 20 20 20 20 20 20 20
24 24 24 24 24 23 23 22 22 22 21 22 23 24 23 23 22 22 21 21 21 21 21 21 21 21 21 20 20 20 20 20 20 20 19 19 19 19 20 20 20 20
23 23 24 24 24 23 23 23 22 21 21 22 22 23 23 23 22 22 21 21 21 21 21 21 21 21 21 20 20 20 19 19 19 19 19 19 19 19 19 20 20 20
23 23 23 24 24 23 23 23 22 21 21 21 21 22 23 23 23 22 22 21 21 21 21 21 21 21 20 20 20 20 19 19 19 19 19 19 19 19 19 19 20 20
23 23 23 23 23 23 23 22 22 22 21 21 21 22 23 23 23 23 22 22 21 21 21 21 21 21 20 20 20 20 19 19 19 19 19 19 19 19 19 19 19 19
23 23 23 23 23 23 22 22 22 22 22 22 21 21 22 23 24 23 23 22 22 22 22 22 21 21 20 20 20 19 19 19 19 19 19 19 19 19 19 19 18 18
23 23 23 23 22 22 22 22 22 22 22 21 21 21 22 23 23 24 24 23 23 22 22 22 21 21 21 20 20 20 19 19 19 19 19 19 19 18 18 18 18 18
24 23 23 23 22 22 22 22 22 22 22 22 21 22 22 22 23 24 24 24 23 22 22 22 22 21 21 20 20 20 19 19 19 19 19 18 18 18 18 18 17 17
24 23 23 23 22 22 22 22 22 22 22 22 22 22 22 22 23 24 24 24 23 23 22 22 22 21 21 20 20 20 19 19 19 19 18 18 18 18 18 17 17 17
24 24 23 23 22 22 22 22 22 22 22 22 22 22 22 23 23 23 24 24 23 23 23 23 22 22 21 20 20 20 19 19 19 19 18 18 18 17 17 17 17 17
24 24 23 23 23 23 23 23 23 23 22 22 22 22 23 23 23 23 23 24 24 23 23 22 21 21 21 20 20 20 19 19 19 18 18 18 18 17 17 18 17 17
24 24 24 24 24 23 23 23 23 22 22 22 22 22 22 22 22 22 23 23 23 23 22 22 21 21 21 20 20 20 19 19 19 18 18 18 18 17 17 17 17 17
Height
1514 1517 1519 1521 1523 1525 1528 1531 1533 1535 1536 1537 1538 1539 1541 1542 1544 1546 1547 1548 1550 1551 1553 1554 1555 1556 1557 1558 1558 1559 1559 1560 1561 1562 1562 1563 1563 1564 1565 1565 1566 1566
1510 1513 1516 1518 1520 1522 1525 1528 1530 1533 1534 1535 1536 1538 1539 1541 1543 1544 1545 1547 1548 1550 1551 1552 1553 1554 1555 1556 1557 1557 1558 1559 1560 1560 1561 1562 1562 1563 1564 1564 1565 1565
1507 1509 1512 1514 1516 1519 1522 1524 1527 1530 1532 1533 1534 1536 1537 1539 1540 1542 1543 1545 1546 1548 1549 1551 1552 1553 1554 1555 1555 1556 1557 1558 1559 1560 1560 1561 1562 1562 1563 1563 1564 1564
1502 1505 1508 1510 1513 1516 1519 1521 1524 1526 1528 1530 1531 1534 1535 1537 1538 1540 1541 1543 1544 1546 1547 1549 1550 1551 1553 1553 1553 1554 1555 1557 1558 1559 1560 1560 1561 1561 1562 1563 1563 1563
1499 1501 1504 1507 1510 1513 1515 1517 1520 1522 1524 1526 1528 1531 1532 1534 1536 1537 1539 1540 1542 1543 1545 1547 1548 1549 1551 1551 1552 1553 1554 1555 1557 1558 1558 1559 1560 1561 1561 1562 1562 1563
1496 1498 1501 1504 1506 1509 1511 1513 1516 1518 1521 1523 1525 1528 1529 1531 1533 1535 1536 1538 1539 1541 1543 1544 1546 1547 1549 1549 1550 1551 1552 1554 1555 1556 1557 1557 1558 1559 1560 1560 1561 1561
1493 1496 1498 1501 1504 1505 1507 1509 1512 1515 1517 1520 1522 1524 1526 1528 1530 1532 1534 1535 1537 1538 1540 1542 1543 1545 1546 1547 1548 1550 1551 1552 1553 1554 1555 1556 1557 1558 1558 1559 1559 1560
1490 1493 1496 1498 1500 1502 1503 1505 1508 1510 1514 1516 1518 1521 1523 1525 1527 1529 1531 1533 1534 1536 1538 1539 1541 1543 1544 1545 1546 1548 1549 1550 1551 1552 1553 1554 1555 1556 1556 1557 1558 1558
1486 1489 1492 1494 1496 1497 1499 1501 1504 1507 1510 1512 1514 1517 1520 1522 1524 1526 1528 1530 1532 1533 1535 1537 1539 1540 1542 1543 1544 1545 1546 1548 1549 1550 1551 1552 1553 1554 1555 1556 1556 1557
1482 1485 1488 1490 1491 1493 1495 1497 1500 1503 1505 1508 1511 1514 1516 1518 1521 1524 1526 1527 1529 1531 1533 1534 1536 1538 1539 1540 1541 1543 1544 1545 1547 1548 1549 1550 1551 1552 1554 1554 1555 1555
1478 1481 1483 1485 1487 1489 1491 1493 1496 1499 1502 1504 1507 1510 1513 1515 1518 1521 1522 1524 1526 1528 1530 1531 1533 1535 1536 1538 1539 1540 1542 1543 1545 1546 1547 1548 1549 1550 1552 1553 1553 1554
1474 1476 1478 1480 1483 1485 1487 1490 1492 1495 1498 1500 1503 1506 1509 1512 1515 1517 1519 1521 1523 1525 1527 1529 1531 1532 1534 1535 1537 1538 1539 1541 1542 1544 1545 1546 1547 1548 1550 1550 1551 1552
1468 1471 1474 1477 1480 1482 1485 1487 1489 1492 1494 1497 1500 1502 1506 1508 1511 1513 1516 1518 1520 1522 1524 1526 1528 1530 1531 1532 1534 1535 1537 1538 1539 1541 1542 1543 1545 1546 1547 1548 1549 1550
1463 1466 1470 1473 1477 1480 1482 1484 1486 1489 1491 1494 1497 1499 1502 1505 1507 1510 1513 1515 1517 1519 1521 1523 1525 1526 1527 1528 1530 1532 1533 1535 1536 1538 1539 1540 1542 1543 1544 1545 1546 1547
1459 1463 1466 1470 1474 1476 1478 1480 1483 1485 1488 1491 1493 1495 1498 1501 1504 1507 1509 1511 1513 1515 1518 1519 1520 1521 1522 1524 1526 1528 1530 1532 1534 1535 1537 1538 1539 1540 1541 1542 1543 1544
1455 1459 1462 1466 1469 1472 1474 1477 1479 1482 1485 1488 1490 1492 1495 1498 1500 1503 1505 1507 1509 1511 1513 1514 1515 1516 1518 1520 1523 1525 1527 1529 1531 1533 1534 1535 1536 1537 1538 1539 1540 1541
1451 1454 1458 1461 1464 1467 1470 1473 1476 1479 1482 1484 1486 1489 1491 1494 1496 1498 1500 1503 1505 1507 1509 1510 1510 1512 1514 1517 1520 1522 1524 1526 1528 1530 1531 1532 1533 1534 1535 1536 1536 1537
1447 1450 1453 1457 1460 1463 1466 1469 1473 1476 1478 1480 1482 1485 1487 1489 1491 1493 1495 1498 1500 1502 1504 1505 1506 1508 1511 1514 1516 1518 1521 1523 1525 1527 1528 1529 1530 1531 1532 1533 1533 1535
1444 1447 1449 1452 1455 1459 1463 1466 1469 1471 1473 1476 1478 1480 1483 1485 1486 1488 1490 1493 1495 1497 1499 1501 1502 1505 1507 1510 1513 1515 1518 1520 1522 1523 1524 1526 1527 1528 1529 1529 1530 1532
1440 1442 1445 1448 1451 1455 1459 1462 1464 1466 1469 1472 1474 1476 1478 1479 1481 1483 1485 1488 1490 1492 1494 1497 1498 1500 1503 1506 1509 1511 1514 1517 1518 1520 1521 1522 1524 1525 1525 1526 1527 1529
1435 1437 1440 1444 1448 1452 1455 1457 1460 1462 1464 1467 1469 1471 1473 1474 1475 1478 1480 1483 1485 1487 1490 1492 1494 1496 1499 1502 1505 1508 1511 1513 1515 1516 1518 1519 1521 1521 1522 1522 1524 1526
1429 1432 1436 1439 1443 1447 1449 1452 1455 1457 1459 1462 1464 1466 1467 1469 1471 1473 1475 1477 1480 1483 1485 1487 1490 1492 1495 1498 1501 1505 1508 1510 1511 1513 1514 1516 1517 1518 1517 1518 1520 1523
1424 1428 1431 1435 1438 1441 1444 1446 1449 1452 1454 1457 1458 1460 1461 1463 1465 1467 1470 1473 1475 1478 1480 1483 1485 1488 1491 1494 1498 1501 1504 1506 1508 1509 1511 1512 1513 1513 1514 1515 1517 1519
1419 1423 1427 1431 1433 1435 1438 1441 1444 1446 1448 1451 1452 1454 1455 1457 1460 1463 1466 1468 1470 1472 1475 1478 1481 1484 1487 1491 1495 1498 1501 1502 1504 1505 1507 1508 1509 1510 1512 1514 1515 1516
1415 1419 1423 1426 1428 1430 1433 1436 1439 1441 1443 1446 1448 1449 1451 1453 1456 1459 1461 1463 1465 1468 1471 1474 1477 1480 1484 1488 1491 1494 1497 1499 1501 1501 1502 1504 1506 1507 1509 1511 1512 1513
1411 1414 1418 1420 1423 1425 1429 1432 1435 1437 1439 1441 1443 1445 1447 1450 1453 1455 1457 1458 1461 1464 1467 1471 1474 1477 1481 1484 1488 1491 1493 1495 1496 1497 1498 1500 1502 1503 1505 1507 1510 1511
Wind_Speed
46 44 43 42 41 40 39 38 36 34 31 31 31 30 29 28 26 25 25 26 25 23 22 22 20 20 19 18 16 15 13 13 12 12 13 15 16 16 16 15 16 17
46 45 44 43 42 41 40 39 38 36 33 32 31 30 29 28 27 25 25 26 25 23 23 22 21 20 20 18 16 14 13 13 13 13 14 15 15 15 15 15 17 18
47 46 44 43 42 41 40 40 39 38 36 34 32 30 29 29 27 26 25 26 25 24 23 24 23 22 21 19 16 15 14 14 14 15 15 15 15 15 15 16 18 19
48 46 45 43 41 40 39 39 40 40 39 37 34 32 30 29 28 27 26 26 26 26 25 25 24 23 22 20 18 17 16 15 15 16 16 16 16 17 17 17 19 19
48 47 45 43 41 40 40 39 40 39 39 39 37 34 32 30 30 28 27 28 28 27 27 26 25 25 23 22 20 19 18 17 16 17 18 18 17 18 19 19 19 19
49 48 46 43 42 41 40 39 39 39 39 39 38 36 34 32 31 30 28 29 29 29 28 27 26 26 25 23 22 21 19 18 18 19 20 19 19 19 20 20 20 20
50 48 46 44 43 42 41 39 38 39 39 39 39 39 36 34 33 32 30 29 30 30 29 28 28 27 26 24 23 22 21 19 19 20 21 21 21 21 21 20 21 21
49 48 46 45 44 43 42 40 39 39 38 39 40 40 38 36 34 33 31 30 30 30 30 30 29 28 27 26 25 24 22 21 21 22 23 23 23 23 22 21 22 22
49 47 46 45 44 44 42 41 40 39 39 39 40 40 39 38 36 34 32 32 31 31 31 31 30 29 28 27 26 26 24 23 23 23 23 24 24 25 24 23 23 23
49 47 46 45 45 44 43 42 41 40 40 40 40 40 40 39 37 35 34 33 33 32 32 32 32 30 29 29 28 27 26 25 24 24 24 24 25 25 25 25 24 23
49 48 46 46 45 44 43 42 41 41 41 40 41 41 40 40 38 37 36 35 34 34 33 33 33 32 31 30 29 28 28 26 25 25 25 25 25 26 26 26 25 24
50 48 47 45 44 44 44 42 42 42 41 41 41 41 41 40 40 39 38 37 36 35 34 34 33 33 32 31 30 29 29 28 27 26 26 26 26 26 27 28 27 25
50 49 47 45 44 44 44 43 43 42 42 42 41 41 41 41 41 40 39 39 38 37 36 35 34 34 34 33 32 31 30 29 29 28 28 28 27 27 28 28 28 27
51 49 47 44 43 43 44 44 44 43 42 42 41 41 41 40 41 41 40 40 39 39 38 37 36 36 36 35 34 33 32 31 30 30 29 29 29 28 29 29 29 28
52 50 48 45 44 43 44 44 44 44 43 42 42 41 40 40 40 41 41 41 41 40 39 39 38 38 38 37 36 35 33 32 32 31 30 30 30 29 29 30 30 30
53 51 49 47 46 45 44 45 45 44 44 44 43 42 40 40 40 41 42 42 42 41 41 41 40 40 39 38 37 36 35 34 33 32 31 31 30 30 30 30 31 32
53 52 51 49 48 46 46 45 45 45 45 44 44 43 41 40 40 42 43 43 43 43 42 42 42 41 41 39 37 37 36 35 33 32 32 31 31 31 30 30 31 33
53 53 52 50 49 48 47 47 46 46 45 45 45 45 42 41 41 42 42 42 43 43 43 43 43 43 42 39 38 37 37 36 34 33 33 32 32 31 31 31 32 33
53 52 52 51 50 49 48 48 47 47 46 46 45 45 44 43 43 42 42 42 43 44 43 43 44 43 42 40 38 38 37 35 35 34 34 33 32 31 31 32 33 31
52 52 52 52 51 49 49 49 49 48 47 46 45 45 45 45 44 44 42 42 43 43 43 43 44 43 41 40 39 38 36 34 34 34 34 33 32 31 32 33 34 31
53 53 52 52 51 50 50 50 49 48 48 47 46 46 46 46 46 44 42 42 42 42 42 43 43 42 41 39 38 36 34 33 34 34 33 33 31 32 34 35 33 31
53 53 52 52 51 51 51 51 50 49 49 48 47 47 47 47 46 44 43 43 42 42 42 42 42 42 40 39 37 35 33 32 33 33 33 32 31 31 35 35 32 30
54 53 52 52 51 51 51 51 51 50 49 48 48 48 48 48 47 45 44 43 43 43 42 41 41 40 39 38 35 33 32 32 32 32 32 31 31 33 35 34 32 31
53 53 52 52 52 52 52 51 51 50 50 49 49 49 48 48 47 45 44 44 44 43 42 40 40 39 37 36 33 31 31 30 30 31 31 31 32 33 32 29 30 32
53 53 52 52 53 53 52 51 51 50 49 49 49 48 48 47 46 45 45 45 44 43 41 40 39 37 35 34 31 30 29 28 28 30 30 31 32 31 28 27 29 32
52 52 52 52 53 54 53 52 51 50 50 49 48 48 47 47 46 45 46 45 43 42 40 39 38 36 34 32 30 29 27 26 27 29 29 28 27 26 27 28 28 30
Wind_Direction
232 233 235 236 236 236 236 235 232 231 229 227 228 231 232 233 234 234 234 234 233 229 224 224 226 225 226 225 219 215 218 223 223 223 229 231 230 231 231 231 230 232
232 233 235 237 238 238 237 237 235 233 232 231 231 233 233 233 235 236 235 234 232 228 224 224 225 224 225 223 217 215 219 222 220 221 228 231 230 228 227 227 229 230
232 233 234 237 238 239 238 238 237 235 235 234 234 234 234 234 236 237 235 234 232 228 226 225 224 225 225 224 220 220 225 225 221 222 228 232 232 230 228 226 227 229
232 233 235 237 239 239 239 238 237 237 236 235 234 235 235 235 236 237 235 234 232 229 227 226 225 225 225 224 221 224 229 230 227 226 229 232 233 234 232 229 228 230
232 233 235 237 238 238 239 237 236 236 236 234 234 235 236 237 237 237 236 234 232 229 227 227 228 227 225 223 223 225 227 228 229 229 231 232 232 234 233 231 231 232
232 233 235 236 237 237 237 236 235 234 234 233 233 234 236 237 237 237 236 234 232 230 227 226 229 228 225 222 223 225 225 226 230 231 232 232 231 234 233 230 232 234
232 233 234 236 236 237 237 236 234 233 233 232 232 234 235 236 237 237 236 234 233 230 227 227 229 229 227 224 224 225 225 226 230 232 233 232 232 234 232 230 231 233
232 234 234 235 236 237 236 234 233 232 231 231 232 233 235 236 237 237 235 233 231 230 229 228 230 231 229 227 226 225 224 225 229 232 233 234 233 233 232 231 231 233
233 234 234 235 235 236 235 232 231 230 230 231 231 233 235 236 238 238 236 233 232 230 229 229 230 231 230 230 229 227 226 226 229 232 235 235 234 233 232 232 232 233
232 233 233 234 234 235 234 231 229 229 229 230 231 232 234 236 238 239 238 236 234 232 230 230 231 231 231 232 231 230 229 229 231 235 237 238 237 235 233 233 233 234
232 233 233 234 234 233 233 231 229 228 228 229 230 231 233 235 237 239 238 238 237 235 234 233 232 232 233 234 234 233 232 232 234 237 239 241 241 238 235 234 234 235
231 232 233 233 233 233 232 230 229 228 227 228 229 230 232 234 236 238 239 239 239 238 237 236 236 235 235 236 236 236 235 234 235 238 240 242 243 242 238 235 234 235
231 232 233 233 233 232 232 231 230 229 228 228 229 230 232 234 236 238 240 241 242 242 241 240 239 238 238 237 237 238 238 237 237 238 240 243 244 245 242 238 236 236
230 231 232 233 233 232 232 232 231 230 229 229 230 231 232 234 236 239 241 243 244 244 244 243 242 241 240 239 238 238 239 239 239 240 241 243 245 246 246 242 238 236
229 230 231 232 232 232 232 232 231 231 230 230 231 231 232 234 237 239 242 244 245 245 245 245 245 244 243 242 240 239 239 240 241 242 243 244 246 248 248 246 242 238
227 229 230 231 231 231 232 232 232 231 231 231 231 232 233 234 236 238 241 243 245 246 246 246 246 247 246 245 244 243 242 243 244 244 245 246 247 249 250 249 246 241
226 228 229 231 231 231 231 232 232 232 231 231 231 232 233 234 236 238 240 242 244 246 247 247 248 249 248 247 247 246 246 246 247 248 249 249 250 251 251 251 249 245
226 227 228 230 231 232 231 231 232 232 232 231 231 232 233 235 236 238 240 242 244 245 247 249 250 250 250 250 250 248 248 249 250 251 251 251 252 252 253 253 252 248
226 226 228 230 231 231 231 231 231 232 232 232 232 232 233 234 236 238 240 241 243 245 247 249 250 251 251 251 251 250 250 251 252 253 253 253 253 254 254 254 254 252
226 227 229 230 231 230 230 230 231 232 233 232 232 231 232 234 236 237 239 241 243 245 247 249 251 251 252 252 252 252 252 253 254 255 255 256 256 256 255 254 255 255
227 228 229 230 229 229 229 230 231 232 233 232 232 232 233 234 235 237 239 241 243 244 246 249 250 252 253 253 253 253 254 255 255 255 256 257 257 257 257 255 255 255
228 229 229 228 228 227 228 229 231 232 232 232 232 233 233 234 235 237 239 240 242 243 245 247 250 251 252 253 254 255 255 255 255 255 256 257 257 257 256 256 255 253
227 228 228 227 226 226 227 229 230 231 232 232 232 233 233 234 235 236 237 239 241 242 244 246 248 250 252 253 254 254 254 254 254 253 253 254 254 253 254 256 256 255
227 227 227 227 226 227 229 230 231 231 231 231 232 233 233 234 235 235 237 239 240 242 244 246 248 250 252 253 254 254 253 253 253 252 251 251 251 252 255 259 260 257
228 226 227 228 229 230 231 231 231 231 231 231 232 233 234 235 235 235 237 238 240 242 245 246 248 250 252 253 254 254 252 251 251 250 249 248 249 250 252 254 256 258
227 226 227 229 231 232 232 232 232 231 230 230 231 233 234 234 235 236 237 238 239 241 243 244 246 249 251 252 253 252 249 246 245 244 244 246 246 247 249 251 253 258